Location: Peebles
(55.6412°N, 3.1714°W)
Time: 10:17:32
(UTC+01:00)

ERS-1 Rocket - Pass Details

Date: 26 September 2021
Orbit: 753 x 757 km, 98.4° (Epoch: 21 October)

Event Time Altitude Azimuth Distance (km) Brightness Sun altitude
Exits shadow 22:39:16 70° 334° (NNW) 811 3.1 -28.6°
Drops below altitude 10° 22:43:44 10° 343° (NNW) 2,300 6.2 -29.0°
Sets 22:46:03 0° 344° (NNW) 3,230 7.2 -29.2°
